Location: Cucq
(50.4773°N, 1.6202°E)
Time: 10:30:42
(UTC+00:00)

Cosmos 1340 Rocket - Pass Details

Date: 07 August 2020
Orbit: 529 x 558 km, 81.2° (Epoch: 21 September)

Event Time Altitude Azimuth Distance (km) Brightness Sun altitude
Exits shadow 03:31:08 11° 217° (SW) 1,756 4.8 -8.7°
Maximum altitude 03:34:47 41° 288° (WNW) 799 3.4 -8.3°
Drops below altitude 10° 03:38:34 10° 360° (N) 1,809 6.0 -7.8°
Sets 03:40:49 0° 7° (N) 2,702 7.1 -7.5°
